Tracking 19709 objects as of 19-Jun-2019
HD Live streaming from Space Station
objects crossing your sky now

DELTA 1 DEB

Track DELTA 1 DEB now!
10-day predictions


NORAD ID: 7088
Int'l Code: 1973-086CG
Perigee: 1,136.4 km
Apogee: 1,540.6 km
Inclination: 102.4 °
Period: 112.3 minutes
Semi major axis: 7709 km
RCS: 0.0368 m2 (small)
Launch date: November 6, 1973
Source: United States (US)
Launch site: AIR FORCE WESTERN TEST RANGE (AFWTR)

Note: This is SATELLITE DEBRIS
aabbcc
Your satellite tracking list
Your tracking list is empty




NASA's NSSDC Master Catalog

Two Line Element Set (TLE):
1  7088U 73086CG  19169.94131123 +.00000449 +00000-0 +18347-2 0  9999
2  7088 102.4195 152.7911 0262101 120.0076 307.7347 12.82519596124771
Source of the keplerian elements: AFSPC